Tracking 19170 objects as of 23-May-2018
HD Live streaming from Space Station
objects crossing your sky now

BREEZE-M DEB (TANK)

Track BREEZE-M DEB (TANK) now!
10-day predictions


NORAD ID: 35875
Int'l Code: 2009-050C
Perigee: 332.5 km
Apogee: 20,448.4 km
Inclination: 49.4 °
Period: 359.9 minutes
Semi major axis: 16761 km
RCS: 6.4522 m2 (large)
Launch date: September 17, 2009
Source: Commonwealth of Independent States (former USSR) (CIS)
Launch site: TYURATAM MISSILE AND SPACE COMPLEX (TTMTR)

Note: This is SATELLITE DEBRIS
aabbcc
Your satellite tracking list
Your tracking list is empty




NASA's NSSDC Master Catalog

Two Line Element Set (TLE):
1 35875U 09050C   18142.74164179 -.00000575 +00000-0 -14431-3 0  9992
2 35875 049.3899 053.8701 6000640 004.3945 359.1242 04.00069029124763
Source of the keplerian elements: AFSPC